[[{"header":{"parameterUnit":"m.s-1","parameterCategory":1,"la1":30.2991,"la2":30.254,"lo1":-89.0895,"lo2":-89.0444,"dy":0.0017,"dx":0.0017,"nx":28,"ny":28,"refTime":"2024-06-28T21:00:00:Z","depth":0,"parameterNumber":2,"parameterNumberName":"U-component_of_WINDS"},"data":[0,0,0,0,0,0,0,0,0,0,0,0,0,0,0,0,0,0,0,0,0,0,0,0,0,0,0,0,0,0,0,0,0,0,0,0,0,0,0,0,0,0,0,0,0,0,0,0,0,0,0,0,0,0,0,0,0,0,0.7875,0.7876,0,0.7919,0.7919,0.792,0.796,0.7961,0.7961,0.7961,0.8009,0.801,0.801,0,0,0,0,0,0,0,0,0,0,0,0,0,0.7829,0.7829,0.7875,0.7876,0.7876,0.7919,0.7919,0.792,0.796,0.7961,0.7961,0.7962,0.8008,0.8009,0.801,0,0,0,0,0,0,0,0,0,0,0,0,0,0.7858,0.783,0.7875,0.7901,0.7904,0.7919,0.7919,0.792,0.796,0.7961,0.7961,0.7962,0.8008,0.8009,0.8011,0.8003,0,0,0.8014,0.8015,0,0,0,0,0,0,0,0,0.7857,0.786,0.7897,0.79,0.7903,0.7935,0.792,0.7948,0.796,0.7939,0.7962,0.7962,0.7984,0.7987,0.7994,0.8006,0.8008,0.8014,0.8015,0.8016,0.8016,0,0,0,0,0,0,0,0.7854,0.7858,0.7893,0.7897,0.7901,0.7912,0.7917,0.7926,0.7957,0.7941,0.7944,0.7948,0.7985,0.7992,0.7995,0.8008,0.8014,0.8015,0.8016,0.8017,0.8016,0.8015,0,0,0,0,0,0,0.7848,0.7856,0.7891,0.7894,0.7881,0.7912,0.7917,0.7924,0.7957,0.7962,0.7947,0.795,0.799,0.7994,0.7997,0.799,0.8016,0.8017,0.8017,0.8017,0.8016,0.8015,0,0,0,0,0,0,0.7847,0.7851,0.7889,0.7876,0.7882,0.7912,0.7919,0.7924,0.7931,0.7962,0.7968,0.7949,0.7991,0.7995,0.8001,0.7992,0.8017,0.8018,0.8018,0.8016,0.8015,0.7976,0,0,0,0,0,0,0.7845,0.785,0.7847,0.7876,0.7882,0.7892,0.7918,0.7925,0.7933,0.7936,0.7965,0.797,0.7992,0.7999,0.8002,0.7994,0.8019,0.8018,0.8017,0.8016,0.7978,0.7974,0.797,0,0,0,0,0,0.7844,0.7835,0.7847,0.7851,0.7879,0.7892,0.7895,0.792,0.7932,0.7929,0.7949,0.7969,0.7993,0.7999,0.8003,0.7995,0.8019,0.8017,0.8016,0.798,0.7974,0.797,0,0,0,0,0,0,0.7806,0.7839,0.7853,0.7853,0.7869,0.7898,0.7896,0.7913,0.7927,0.793,0.796,0.7966,0.7968,0.7983,0.799,0.799,0.8009,0.8008,0.798,0.7975,0.7971,0.7967,0.802,0,0,0,0,0,0.7798,0.7804,0.7833,0.7831,0.7838,0.7865,0.7872,0.7889,0.7907,0.7914,0.7935,0.7952,0.7963,0.797,0.7982,0.7981,0.7987,0.7977,0.7973,0.7969,0.7968,0.7967,0.7963,0.8009,0.8009,0.801,0,0,0.7781,0.78,0.7802,0.7824,0.7838,0.7845,0.7871,0.7877,0.7882,0.7916,0.7922,0.7937,0.7959,0.796,0.7962,0.7973,0.7956,0.7967,0.7964,0.7965,0.7965,0.796,0.7956,0.8008,0.8009,0.8009,0,0,0.7752,0.7768,0.7767,0.778,0.7802,0.782,0.7819,0.7846,0.7857,0.7864,0.7889,0.7896,0.7915,0.7929,0.7938,0.7915,0.7934,0.7918,0.7896,0.7895,0.7891,0.7888,0.7878,0.7875,0.7917,0.7917,0.7917,0,0.7729,0.7739,0.7764,0.7768,0.7777,0.7807,0.7806,0.7819,0.7843,0.7848,0.7859,0.7883,0.79,0.7905,0.7899,0.7906,0.7906,0.7915,0.7889,0.7886,0.7884,0.7875,0.7872,0.7915,0.7915,0.7915,0.7915,0,0.7708,0.7715,0.7712,0.7733,0.7741,0.7743,0.7769,0.7775,0.7792,0.7809,0.7815,0.7836,0.7852,0.7855,0.7872,0.7862,0.7867,0.7883,0.7903,0.7877,0.7869,0.7866,0.7912,0.7913,0.7913,0.7914,0,0,0.7657,0.7692,0.769,0.77,0.7725,0.7731,0.7734,0.775,0.7753,0.7769,0.7772,0.7787,0.7802,0.7813,0.7832,0.7831,0.7809,0.7847,0.7848,0.7838,0.7799,0.7785,0.7781,0.7822,0.7822,0.7821,0.7797,0,0.7632,0.7638,0.7661,0.7661,0.7667,0.7695,0.7698,0.7714,0.773,0.7738,0.7757,0.7766,0.7786,0.7792,0.7793,0.7812,0.7802,0.7814,0.7825,0.7825,0.7817,0.7778,0.7764,0.7739,0.7794,0.7793,0.7793,0,0.7604,0.7616,0.7616,0.764,0.7644,0.7646,0.7661,0.7669,0.7687,0.7699,0.7711,0.7731,0.7736,0.7755,0.7762,0.777,0.7776,0.7786,0.7786,0.7787,0.7807,0.7776,0.7732,0.7728,0.7789,0.7789,0.779,0,0.7565,0.7582,0.7584,0.7592,0.7621,0.7621,0.7633,0.7653,0.766,0.7674,0.7679,0.7693,0.7701,0.7712,0.7736,0.7747,0.774,0.7761,0.775,0.7749,0.7746,0.7746,0.7701,0.7752,0.7752,0.7752,0.7752,0,0.7534,0.7532,0.7567,0.7568,0.7567,0.7594,0.7592,0.7607,0.7624,0.7629,0.7655,0.7659,0.7691,0.7699,0.7718,0.772,0.7724,0.7733,0.7738,0.773,0.7729,0.7734,0.7736,0.7751,0.7751,0.7752,0.7752,0,0.749,0.7513,0.7516,0.7543,0.755,0.7548,0.7571,0.7573,0.7591,0.7596,0.7599,0.7627,0.7637,0.7662,0.768,0.7693,0.769,0.7699,0.7683,0.7685,0.7672,0.7673,0.7628,0.7623,0.7678,0.7678,0.7677,0,0.7468,0.7467,0.7494,0.7498,0.7509,0.7516,0.7523,0.755,0.7557,0.7578,0.7577,0.7589,0.76,0.7615,0.7637,0.7651,0.766,0.7644,0.7662,0.7654,0.7658,0.7657,0.7657,0.7639,0.7638,0.7638,0.7637,0,0.7426,0.7437,0.7447,0.7459,0.7467,0.7479,0.7492,0.7495,0.7525,0.7531,0.7541,0.7549,0.7566,0.7578,0.7594,0.7608,0.7627,0.7631,0.7629,0.762,0.761,0.7614,0.767,0.7632,0.7633,0.7633,0.7633,0.7633,0.7392,0.7392,0.741,0.7419,0.7432,0.7444,0.7446,0.7464,0.7473,0.7488,0.7504,0.7512,0.7531,0.7555,0.7566,0.7573,0.7584,0.7581,0.758,0.7579,0.7574,0.761,0.7577,0.7577,0.7577,0.7577,0.7578,0,0.735,0.7363,0.7371,0.7388,0.7396,0.7413,0.7429,0.7433,0.744,0.7456,0.7466,0.7477,0.7488,0.7511,0.7524,0.7525,0.7534,0.7528,0.7527,0.753,0.7565,0.7565,0.752,0.752,0.752,0.752,0.752,0.752,0.7329,0.733,0.7343,0.7351,0.7365,0.7372,0.7379,0.739,0.7402,0.7413,0.7422,0.7437,0.7455,0.747,0.7481,0.7487,0.749,0.748,0.749,0.7522,0.7527,0.7533,0.7532,0.7481,0.7481,0.7453,0.7453,0.7453]},{"header":{"parameterUnit":"m.s-1","parameterCategory":1,"la1":30.2991,"la2":30.254,"lo1":-89.0895,"lo2":-89.0444,"dy":0.0017,"dx":0.0017,"nx":28,"ny":28,"refTime":"2024-06-28T21:00:00:Z","depth":0,"parameterNumber":3,"parameterNumberName":"V-component_of_WINDS"},"data":[0,0,0,0,0,0,0,0,0,0,0,0,0,0,0,0,0,0,0,0,0,0,0,0,0,0,0,0,0,0,0,0,0,0,0,0,0,0,0,0,0,0,0,0,0,0,0,0,0,0,0,0,0,0,0,0,0,0,3.7509,3.7509,0,3.7527,3.7527,3.7527,3.7549,3.755,3.755,3.755,3.7567,3.7567,3.7567,0,0,0,0,0,0,0,0,0,0,0,0,0,3.7492,3.7492,3.7509,3.7509,3.7509,3.7527,3.7527,3.7527,3.7549,3.755,3.755,3.7551,3.7567,3.7567,3.7567,0,0,0,0,0,0,0,0,0,0,0,0,0,3.7503,3.7492,3.7509,3.7522,3.7524,3.7527,3.7527,3.7527,3.7549,3.755,3.755,3.7551,3.7567,3.7567,3.7567,3.7557,0,0,3.7568,3.7568,0,0,0,0,0,0,0,0,3.7502,3.7504,3.752,3.7521,3.7523,3.7536,3.7527,3.7537,3.7549,3.7539,3.755,3.7551,3.7556,3.7557,3.7559,3.7558,3.7559,3.7568,3.7568,3.7568,3.7568,0,0,0,0,0,0,0,3.7502,3.7503,3.7516,3.752,3.7522,3.7527,3.7529,3.7529,3.7544,3.754,3.7542,3.7544,3.7557,3.7559,3.756,3.7559,3.7568,3.7568,3.7568,3.7568,3.7551,3.755,0,0,0,0,0,0,3.7499,3.7502,3.7515,3.7516,3.7514,3.7527,3.7529,3.7531,3.7545,3.7547,3.7543,3.7545,3.7559,3.756,3.7561,3.755,3.7568,3.7568,3.7568,3.7551,3.7551,3.755,0,0,0,0,0,0,3.7499,3.75,3.7514,3.751,3.7512,3.7527,3.7529,3.7532,3.7534,3.7547,3.755,3.7543,3.7559,3.756,3.7558,3.7551,3.7568,3.7568,3.7552,3.7551,3.755,3.7529,0,0,0,0,0,0,3.7498,3.75,3.7497,3.751,3.7512,3.7512,3.7528,3.7532,3.7534,3.7536,3.7547,3.7549,3.756,3.7558,3.7558,3.7551,3.7568,3.7553,3.7552,3.7551,3.753,3.7527,3.7525,0,0,0,0,0,3.7497,3.7489,3.7496,3.7498,3.7509,3.7512,3.7513,3.7525,3.7534,3.753,3.7539,3.7549,3.7552,3.7557,3.7558,3.7551,3.7553,3.7552,3.7551,3.7531,3.7528,3.7525,0,0,0,0,0,0,3.7474,3.7491,3.7499,3.7495,3.7502,3.7515,3.7512,3.7521,3.7525,3.7527,3.7542,3.7544,3.754,3.7545,3.7551,3.7542,3.7554,3.7553,3.7539,3.7536,3.7533,3.7531,3.7568,0,0,0,0,0,3.7469,3.747,3.7485,3.748,3.7483,3.7497,3.7499,3.7508,3.7515,3.7518,3.7526,3.7532,3.7534,3.7535,3.7538,3.7531,3.7534,3.7527,3.7524,3.7522,3.752,3.7517,3.7514,3.7546,3.7546,3.7546,0,0,3.7457,3.7467,3.7467,3.7476,3.7482,3.7483,3.7499,3.7499,3.75,3.7517,3.7516,3.7522,3.753,3.7525,3.7524,3.753,3.7512,3.752,3.7518,3.7518,3.7515,3.7512,3.7509,3.7545,3.7545,3.7545,0,0,3.7437,3.7444,3.7441,3.7447,3.7457,3.7466,3.7465,3.7477,3.7482,3.7482,3.7495,3.7495,3.7499,3.7504,3.7507,3.7489,3.7498,3.7489,3.7475,3.7471,3.7469,3.7466,3.7459,3.7457,3.7488,3.7488,3.7488,0,3.7421,3.7423,3.7438,3.7437,3.7441,3.7458,3.7454,3.7459,3.7469,3.747,3.7477,3.7482,3.7489,3.7485,3.7481,3.7483,3.7482,3.7488,3.7468,3.7466,3.7464,3.7458,3.7455,3.7487,3.7487,3.7487,3.7487,0,3.7403,3.7405,3.7401,3.7411,3.7414,3.7412,3.7425,3.7426,3.7435,3.7443,3.7442,3.745,3.7455,3.7455,3.7464,3.7453,3.7456,3.7465,3.7477,3.746,3.7454,3.7451,3.7485,3.7485,3.7486,3.7486,0,0,3.7368,3.7386,3.7385,3.7389,3.7401,3.7402,3.7401,3.7406,3.7407,3.7413,3.7412,3.7415,3.7423,3.7427,3.7436,3.7433,3.7417,3.7442,3.7442,3.7437,3.7405,3.7398,3.7395,3.7424,3.7423,3.7423,3.7405,0,3.7349,3.7349,3.7362,3.7357,3.7358,3.7375,3.7373,3.738,3.7388,3.739,3.7398,3.74,3.7411,3.7413,3.7411,3.7419,3.7411,3.7421,3.7422,3.7422,3.7419,3.7392,3.7384,3.7366,3.7402,3.7402,3.7402,0,3.7327,3.7333,3.7329,3.7341,3.7342,3.7341,3.7347,3.7349,3.7356,3.7362,3.7366,3.7377,3.7376,3.7388,3.7386,3.7393,3.7394,3.7398,3.7398,3.7398,3.741,3.7391,3.7361,3.7358,3.7398,3.7399,3.7399,0,3.7301,3.7308,3.7306,3.731,3.7324,3.7323,3.7329,3.7338,3.734,3.7345,3.7347,3.7351,3.7353,3.7356,3.7368,3.7375,3.7365,3.7377,3.7369,3.7369,3.7365,3.7365,3.7335,3.7367,3.7367,3.7367,3.7367,0,3.7279,3.7275,3.7295,3.7294,3.729,3.7305,3.7301,3.7309,3.7316,3.7316,3.7331,3.733,3.7346,3.7347,3.7356,3.7353,3.7354,3.7358,3.736,3.7357,3.7356,3.7357,3.7358,3.7366,3.7367,3.7367,3.7367,0,3.7249,3.7262,3.7261,3.7275,3.7279,3.7276,3.7287,3.7287,3.7296,3.7295,3.7296,3.731,3.7312,3.7324,3.7329,3.7335,3.7328,3.7333,3.7326,3.7327,3.7318,3.7318,3.7287,3.7283,3.7318,3.7318,3.7317,0,3.7233,3.7231,3.7245,3.7247,3.7252,3.7255,3.7257,3.7272,3.7274,3.7283,3.7281,3.7285,3.7288,3.7291,3.7301,3.7304,3.7309,3.7298,3.731,3.7306,3.7309,3.7308,3.7308,3.7295,3.7295,3.7294,3.7294,0,3.7204,3.7211,3.7215,3.7221,3.7224,3.7229,3.7235,3.7235,3.7252,3.7253,3.7256,3.7259,3.7264,3.7267,3.7273,3.7278,3.7288,3.729,3.7288,3.7284,3.728,3.7282,3.7318,3.7291,3.7291,3.7291,3.7292,3.7292,3.7181,3.718,3.7189,3.7193,3.72,3.7205,3.7205,3.7214,3.7217,3.7223,3.7232,3.7233,3.7241,3.725,3.7254,3.7255,3.7261,3.7258,3.7258,3.7257,3.7255,3.728,3.7256,3.7256,3.7256,3.7256,3.7257,0,3.7152,3.7159,3.7163,3.7171,3.7174,3.7185,3.7192,3.7193,3.7195,3.7202,3.7205,3.7208,3.7212,3.7222,3.7226,3.7225,3.723,3.7225,3.7225,3.7226,3.7249,3.725,3.7221,3.7221,3.7221,3.7221,3.7221,3.7221,3.7137,3.7136,3.7144,3.7146,3.7153,3.7155,3.7158,3.7163,3.7169,3.7172,3.7175,3.7182,3.719,3.7195,3.7198,3.7201,3.7202,3.7196,3.72,3.7221,3.7224,3.7228,3.7229,3.7196,3.7196,3.7177,3.7177,3.7177]}]]